| time (UTC) | temp F | wind direction | speed MPH | gust MPH | rain 1hr in | rain 24hr in | rain mn in | humidity % | barometer mb |
| 20260508051029 | 47 | 0.0 | 0.0 | 0.00 | 0.00 | 0.00 | 89 | 1013.1 | |
| 20260508050047 | 47 | 0.0 | 0.0 | 0.00 | 0.00 | 0.00 | 89 | 1012.9 | |
| 20260508045023 | 48 | 0.0 | 0.0 | 0.00 | 0.00 | 0.00 | 89 | 1013.0 | |
| 20260508044027 | 48 | 0.0 | 0.0 | 0.00 | 0.00 | 0.00 | 89 | 1013.0 | |
| 20260508043019 | 48 | 0.0 | 0.0 | 0.00 | 0.00 | 0.00 | 88 | 1012.9 | |
| 20260508042126 | 48 | 0.0 | 0.0 | 0.00 | 0.00 | 0.00 | 87 | 1012.9 | |
| 20260508041114 | 49 | 0.0 | 0.0 | 0.00 | 0.00 | 0.00 | 87 | 1012.9 | |
| 20260508040129 | 49 | 0.0 | 0.0 | 0.00 | 0.00 | 0.00 | 87 | 1012.9 | |
| 20260508035106 | 49 | 0.0 | 0.0 | 0.00 | 0.00 | 0.00 | 86 | 1012.7 | |
| 20260508034107 | 49 | 0.0 | 0.0 | 0.00 | 0.00 | 0.00 | 86 | 1012.8 | |
| 20260508033102 | 49 | 0.0 | 2.0 | 0.00 | 0.00 | 0.00 | 85 | 1012.7 | |
| 20260508032059 | 50 | 0.0 | 0.0 | 0.00 | 0.00 | 0.00 | 85 | 1012.6 | |
| 20260508031057 | 50 | 0.0 | 2.0 | 0.00 | 0.00 | 0.00 | 85 | 1012.8 | |
| 20260508030055 | 50 | 0.0 | 0.0 | 0.00 | 0.00 | 0.00 | 84 | 1012.8 | |
| 20260508025051 | 50 | 0.0 | 0.0 | 0.00 | 0.00 | 0.00 | 83 | 1012.6 | |
| 20260508024050 | 50 | 0.0 | 0.0 | 0.00 | 0.00 | 0.00 | 83 | 1012.7 | |
| 20260508023045 | 50 | 0.0 | 0.0 | 0.00 | 0.00 | 0.00 | 82 | 1012.7 | |
| 20260508022043 | 50 | 0.0 | 0.0 | 0.00 | 0.00 | 0.00 | 81 | 1012.6 | |
| 20260508021040 | 51 | 0.0 | 0.0 | 0.00 | 0.00 | 0.00 | 80 | 1012.5 | |
| 20260508020039 | 51 | 0.0 | 0.0 | 0.00 | 0.00 | 0.00 | 78 | 1012.6 | |
| 20260508015056 | 51 | 0.0 | 2.0 | 0.00 | 0.00 | 0.00 | 78 | 1012.6 | |
| 20260508014034 | 51 | 0.0 | 2.0 | 0.00 | 0.00 | 0.00 | 78 | 1012.5 | |
| 20260508013030 | 51 | 0.0 | 2.0 | 0.00 | 0.00 | 0.00 | 80 | 1012.5 | |
| 20260508012048 | 51 | 0.0 | 2.0 | 0.00 | 0.00 | 0.00 | 80 | 1012.5 | |
| 20260508011025 | 51 | 0.0 | 2.0 | 0.00 | 0.00 | 0.00 | 79 | 1012.6 | |
| 20260508010024 | 51 | 0.0 | 0.0 | 0.00 | 0.00 | 0.00 | 82 | 1012.6 | |
| 20260508005021 | 51 | 0.0 | 0.0 | 0.00 | 0.00 | 0.00 | 82 | 1012.7 | |
| 20260508004038 | 52 | 0.0 | 0.0 | 0.00 | 0.00 | 0.00 | 82 | 1012.6 | |
| 20260508003021 | 52 | 0.0 | 0.0 | 0.00 | 0.00 | 0.00 | 80 | 1012.7 | |
| 20260508002113 | 52 | 0.0 | 0.0 | 0.00 | 0.00 | 0.00 | 78 | 1012.8 | |
| 20260508001130 | 52 | 0.0 | 2.0 | 0.00 | 0.00 | 0.00 | 75 | 1012.8 | |
| 20260508000114 | 52 | 0.0 | 2.0 | 0.00 | 0.00 | 0.00 | 75 | 1012.6 | |
| 20260507235238 | 52 | 0.0 | 2.0 | 0.00 | 0.00 | 0.00 | 76 | 1012.7 | |
| 20260507234106 | 52 | 0.0 | 2.0 | 0.00 | 0.00 | 0.00 | 76 | 1012.5 | |
| 20260507233120 | 52 | 0.0 | 2.0 | 0.00 | 0.00 | 0.00 | 76 | 1012.5 | |
| 20260507231054 | 52 | 0.0 | 2.0 | 0.00 | 0.00 | 0.00 | 78 | 1012.4 | |
| 20260507230053 | 52 | 236 | 0.0 | 2.0 | 0.00 | 0.00 | 0.00 | 79 | 1012.3 |
| 20260507225050 | 52 | 0.0 | 0.0 | 0.00 | 0.00 | 0.00 | 80 | 1012.2 | |
| 20260507224106 | 52 | 0.0 | 2.0 | 0.00 | 0.00 | 0.00 | 81 | 1012.3 | |
| 20260507223045 | 51 | 0.0 | 0.0 | 0.00 | 0.00 | 0.00 | 81 | 1012.2 | |
| 20260507222041 | 52 | 0.0 | 0.0 | 0.00 | 0.00 | 0.00 | 81 | 1012.2 | |
| 20260507221058 | 52 | 0.0 | 0.0 | 0.00 | 0.00 | 0.00 | 82 | 1012.3 | |
| 20260507220035 | 52 | 0.0 | 0.0 | 0.00 | 0.00 | 0.00 | 82 | 1012.2 | |
| 20260507215053 | 52 | 0.0 | 2.0 | 0.00 | 0.00 | 0.00 | 81 | 1012.4 | |
| 20260507214031 | 52 | 0.0 | 0.0 | 0.00 | 0.00 | 0.00 | 81 | 1012.4 | |
| 20260507213029 | 52 | 0.0 | 0.0 | 0.00 | 0.00 | 0.00 | 81 | 1012.4 | |
| 20260507212025 | 52 | 0.0 | 2.0 | 0.00 | 0.00 | 0.00 | 80 | 1012.3 | |
| 20260507211022 | 52 | 0.0 | 2.0 | 0.00 | 0.00 | 0.00 | 80 | 1012.5 | |
| 20260507210020 | 52 | 0.0 | 2.0 | 0.00 | 0.00 | 0.00 | 79 | 1012.4 | |
| 20260507205017 | 52 | 0.0 | 0.0 | 0.00 | 0.00 | 0.00 | 78 | 1012.1 | |
| 20260507204015 | 53 | 0.0 | 0.0 | 0.00 | 0.00 | 0.00 | 78 | 1012.2 | |
| 20260507203112 | 53 | 0.0 | 0.0 | 0.00 | 0.00 | 0.00 | 78 | 1012.0 | |
| 20260507202110 | 53 | 0.0 | 2.0 | 0.00 | 0.00 | 0.00 | 79 | 1012.0 | |
| 20260507201108 | 53 | 0.0 | 0.0 | 0.00 | 0.00 | 0.00 | 79 | 1011.9 | |
| 20260507200106 | 52 | 0.0 | 0.0 | 0.00 | 0.00 | 0.00 | 78 | 1012.0 | |
| 20260507195122 | 53 | 0.0 | 0.0 | 0.00 | 0.00 | 0.00 | 77 | 1011.8 | |
| 20260507194120 | 53 | 0.0 | 2.0 | 0.00 | 0.00 | 0.00 | 76 | 1011.7 | |
| 20260507193057 | 53 | 0.0 | 0.0 | 0.00 | 0.00 | 0.00 | 74 | 1011.6 | |
| 20260507192054 | 53 | 0.0 | 2.0 | 0.00 | 0.00 | 0.00 | 74 | 1011.5 | |
| 20260507191052 | 54 | 0.0 | 0.0 | 0.00 | 0.00 | 0.00 | 74 | 1011.4 | |
| 20260507190050 | 54 | 0.0 | 0.0 | 0.00 | 0.00 | 0.00 | 74 | 1011.5 | |
| 20260507185047 | 54 | 0.0 | 0.0 | 0.00 | 0.00 | 0.00 | 73 | 1011.4 | |
| 20260507184044 | 54 | 0.0 | 2.0 | 0.00 | 0.00 | 0.00 | 73 | 1011.3 | |
| 20260507183042 | 54 | 0.0 | 0.0 | 0.00 | 0.00 | 0.00 | 75 | 1011.3 | |
| 20260507182039 | 53 | 0.0 | 2.0 | 0.00 | 0.00 | 0.00 | 76 | 1011.2 | |
| 20260507181058 | 53 | 0.0 | 2.0 | 0.00 | 0.00 | 0.00 | 78 | 1011.3 | |
| 20260507180035 | 53 | 0.0 | 0.0 | 0.00 | 0.00 | 0.00 | 78 | 1011.2 | |
| 20260507175031 | 53 | 0.0 | 2.0 | 0.00 | 0.00 | 0.00 | 78 | 1011.2 | |
| 20260507174029 | 53 | 0.0 | 0.0 | 0.00 | 0.00 | 0.00 | 79 | 1011.3 | |
| 20260507173026 | 53 | 0.0 | 0.0 | 0.00 | 0.00 | 0.00 | 78 | 1011.5 | |
| 20260507172024 | 53 | 0.0 | 0.0 | 0.00 | 0.00 | 0.00 | 78 | 1011.5 | |
| 20260507171021 | 53 | 0.0 | 0.0 | 0.00 | 0.00 | 0.00 | 77 | 1011.7 | |
| 20260507170020 | 53 | 0.0 | 0.0 | 0.00 | 0.00 | 0.00 | 76 | 1011.6 | |
| 20260507165016 | 53 | 0.0 | 0.0 | 0.00 | 0.00 | 0.00 | 74 | 1011.9 | |
| 20260507164134 | 54 | 0.0 | 0.0 | 0.00 | 0.00 | 0.00 | 70 | 1012.0 | |
| 20260507163111 | 54 | 0.0 | 2.0 | 0.00 | 0.00 | 0.00 | 68 | 1012.0 | |
| 20260507162110 | 55 | 0.0 | 0.0 | 0.00 | 0.00 | 0.00 | 68 | 1012.0 | |
| 20260507161106 | 55 | 0.0 | 0.0 | 0.00 | 0.00 | 0.00 | 66 | 1011.9 | |
| 20260507160103 | 55 | 0.0 | 0.0 | 0.00 | 0.00 | 0.00 | 67 | 1012.0 | |
| 20260507155101 | 55 | 0.0 | 2.0 | 0.00 | 0.00 | 0.00 | 67 | 1012.0 | |
| 20260507154057 | 55 | 0.0 | 0.0 | 0.00 | 0.00 | 0.00 | 66 | 1012.1 | |
| 20260507153054 | 55 | 0.0 | 0.0 | 0.00 | 0.00 | 0.00 | 66 | 1012.2 | |
| 20260507152112 | 55 | 0.0 | 2.0 | 0.00 | 0.00 | 0.00 | 66 | 1012.2 | |
| 20260507151051 | 55 | 236 | 0.0 | 2.0 | 0.00 | 0.00 | 0.00 | 65 | 1011.9 |
| 20260507150048 | 56 | 203 | 0.0 | 2.0 | 0.00 | 0.00 | 0.00 | 64 | 1011.6 |
| 20260507145044 | 56 | 225 | 0.0 | 2.0 | 0.00 | 0.00 | 0.00 | 64 | 1011.8 |
| 20260507144041 | 56 | 225 | 0.0 | 2.0 | 0.00 | 0.00 | 0.00 | 64 | 1011.7 |
| 20260507143039 | 56 | 225 | 0.0 | 2.0 | 0.00 | 0.00 | 0.00 | 65 | 1012.1 |
| 20260507142036 | 56 | 246 | 0.0 | 2.0 | 0.00 | 0.00 | 0.00 | 66 | 1012.1 |
| 20260507141035 | 55 | 208 | 0.0 | 2.0 | 0.00 | 0.00 | 0.00 | 66 | 1012.0 |
| 20260507140031 | 55 | 232 | 0.0 | 2.0 | 0.00 | 0.00 | 0.00 | 67 | 1012.4 |
| 20260507135048 | 55 | 248 | 1.0 | 4.0 | 0.00 | 0.00 | 0.00 | 68 | 1012.1 |
| 20260507134026 | 55 | 219 | 0.0 | 2.0 | 0.00 | 0.00 | 0.00 | 67 | 1012.3 |
| 20260507133023 | 55 | 220 | 1.0 | 2.0 | 0.00 | 0.00 | 0.00 | 67 | 1012.2 |
| 20260507132022 | 55 | 236 | 1.0 | 2.0 | 0.00 | 0.00 | 0.00 | 67 | 1012.5 |
| 20260507131019 | 55 | 235 | 0.0 | 2.0 | 0.00 | 0.00 | 0.00 | 68 | 1012.4 |
| 20260507130015 | 54 | 236 | 0.0 | 2.0 | 0.00 | 0.00 | 0.00 | 68 | 1012.5 |
| 20260507125134 | 54 | 248 | 1.0 | 2.0 | 0.00 | 0.00 | 0.00 | 68 | 1012.8 |
| 20260507124112 | 54 | 225 | 0.0 | 2.0 | 0.00 | 0.00 | 0.00 | 69 | 1012.8 |
| 20260507123108 | 53 | 215 | 1.0 | 2.0 | 0.00 | 0.00 | 0.00 | 70 | 1012.9 |
| 20260507122107 | 52 | 0.0 | 2.0 | 0.00 | 0.00 | 0.00 | 72 | 1013.0 | |
| 20260507121104 | 52 | 225 | 0.0 | 4.0 | 0.00 | 0.00 | 0.00 | 72 | 1013.6 |
| 20260507115052 | 51 | 248 | 0.0 | 2.0 | 0.00 | 0.00 | 0.00 | 72 | 1013.6 |
| 20260507114110 | 52 | 225 | 0.0 | 2.0 | 0.00 | 0.00 | 0.00 | 72 | 1013.3 |
| 20260507113048 | 52 | 210 | 0.0 | 2.0 | 0.00 | 0.00 | 0.00 | 73 | 1013.1 |
| 20260507112039 | 52 | 225 | 0.0 | 2.0 | 0.00 | 0.00 | 0.00 | 74 | 1013.0 |
| 20260507111038 | 52 | 234 | 0.0 | 4.0 | 0.00 | 0.00 | 0.00 | 74 | 1013.2 |
| 20260507110029 | 52 | 225 | 0.0 | 2.0 | 0.00 | 0.00 | 0.00 | 73 | 1013.1 |
| 20260507105025 | 53 | 225 | 0.0 | 2.0 | 0.00 | 0.00 | 0.00 | 71 | 1012.4 |
| 20260507104023 | 54 | 200 | 1.0 | 2.0 | 0.00 | 0.00 | 0.00 | 69 | 1012.4 |
| 20260507103114 | 53 | 232 | 1.0 | 2.0 | 0.00 | 0.00 | 0.00 | 69 | 1012.5 |
| 20260507102132 | 54 | 210 | 0.0 | 4.0 | 0.00 | 0.00 | 0.00 | 69 | 1012.6 |
| 20260507101104 | 53 | 230 | 1.0 | 4.0 | 0.00 | 0.00 | 0.00 | 70 | 1012.6 |
| 20260507095059 | 53 | 212 | 1.0 | 2.0 | 0.00 | 0.00 | 0.00 | 70 | 1011.4 |
| 20260507094111 | 53 | 216 | 1.0 | 4.0 | 0.00 | 0.00 | 0.00 | 72 | 1011.4 |
| 20260507093048 | 53 | 235 | 0.0 | 2.0 | 0.00 | 0.00 | 0.00 | 71 | 1011.4 |
| 20260507092040 | 53 | 251 | 0.0 | 4.0 | 0.00 | 0.00 | 0.00 | 72 | 1012.3 |
| 20260507091039 | 52 | 205 | 1.0 | 7.0 | 0.00 | 0.00 | 0.00 | 73 | 1012.8 |
| 20260507090035 | 51 | 231 | 1.0 | 4.0 | 0.00 | 0.00 | 0.00 | 75 | 1012.8 |
| 20260507085028 | 50 | 225 | 1.0 | 4.0 | 0.00 | 0.00 | 0.00 | 76 | 1012.9 |
| 20260507084024 | 50 | 236 | 0.0 | 2.0 | 0.00 | 0.00 | 0.00 | 76 | 1013.0 |
| 20260507083017 | 50 | 231 | 0.0 | 2.0 | 0.00 | 0.00 | 0.00 | 77 | 1012.9 |
| 20260507082114 | 50 | 243 | 1.0 | 2.0 | 0.00 | 0.00 | 0.00 | 77 | 1012.9 |
| 20260507081111 | 50 | 225 | 0.0 | 2.0 | 0.00 | 0.00 | 0.00 | 78 | 1013.0 |